User: anonymous   Login
Location: Unspecified
(0.0000°N, 0.0000°E)
Time: 08:33:49
(UTC+00:00)
Language:

RS-7 - Orbit

View from above orbital plane
View from above orbital plane
View from above satellite
View from above satellite

Ground track
Ground track

The orbit data is extracted from the following two-line orbital elements,

1 13001U 81120E   22330.85519218  .00000060  00000-0  55559-3 0  9994
2 13001  82.9625  13.8525 0024256 170.4747   3.5909 12.08916227806550
Epoch (UTC): 26 November 2022 20:31:28
Eccentricity: 0.0024256
inclination: 82.9625°
perigee height: 1622 km
apogee height: 1660 km
right ascension of ascending node: 13.8525°
argument of perigee: 170.4747°
revolutions per day: 12.08916227
mean anomaly at epoch: 3.5909°
orbit number at epoch: 80655

The dashed part of the orbit path shows where the satellite is in the earth's shadow,  

DLR